www.pogodaiklimat.ru

Погода и климат >> Архив погоды >> Иран >> Ahwaz


ПОГОДА в Ahwaz

  • Прогноз погоды в Ahwaz
  • Монитор погоды в Ahwaz
  • Климат города

АРХИВ ПОГОДЫ в Ahwaz

Время (UTC), дата Ветер
(напр.,м/с)
 
Видим.   Явления Облачность Т
(С)
Тd
(С)
f
(%)
Тe
(С)
Тes
(С)
Комфортность P
(гПа)
Po
(гПа)
Тmin
(С)
Tmax
(С)
R
(мм)
R24
(мм)
S
(см)
12 18.09 З 2 8000 м мгла ясно +44.4 +18.6 23 +48 +55 опасность
перегрева
1002.0 999.6
15 18.09 Ю 2 7000 м мгла ясно +39.8 +18.4 29 +43 +43 опасность
перегрева
1002.3 999.9 +45.6
18 18.09 Ю 4 6000 м мгла ясно +35.2 +26.5 61 +52 +52 опасность
перегрева
1004.9 1002.5
21 18.09 Ю 3 4000 м мгла 3/0
[Ac trans]
+33.2 +26.5 68 +50 +50 опасность
перегрева
1005.2 1002.8
00 19.09 В 1 5000 м мгла 3/0
[Ac trans]
+31.9 +26.8 74 +49 +49 опасность
перегрева
1005.4 1003.0
03 19.09 В 1 4000 м мгла ясно +30.5 +26.0 77 +46 +46 опасность
перегрева
1005.4 1003.0 +30.3
06 19.09 ЮВ 2 4500 м мгла ясно +37.2 +23.3 45 +47 +56 опасность
перегрева
1006.8 1004.4
09 19.09 З 2 6000 м мгла ясно +41.9 +19.9 28 +47 +63 опасность
перегрева
1005.4 1003.0
12 19.09 ЮЗ 2 6000 м мгла ясно +43.5 +20.4 27 +49 +56 опасность
перегрева
1003.4 1001.0
15 19.09 ЮЗ 2 4000 м мгла ясно +39.2 +20.0 33 +45 +45 опасность
перегрева
1003.4 1001.0 +43.9
18 19.09 ЮВ 1 8000 м мгла 1/0
[Ac trans]
+37.1 +19.5 36 +42 +42 опасность
перегрева
1005.1 1002.7
21 19.09 ЮЗ 2 10 км ясно +34.2 +18.7 40 +39 +39 очень
душно
1004.8 1001.6
00 20.09 З 1 8000 м мгла ясно +29.3 +21.5 63 +37 +37 очень
душно
1004.3 1001.8
03 20.09 ЮВ 1 3000 м мгла ясно +29.4 +21.9 64 +38 +38 очень
душно
1005.3 1002.8 +28.9
06 20.09 В 1 3000 м мгла ясно +37.3 +13.2 24 +38 +48 душно 1006.1 1003.6
09 20.09 СЗ 2 5000 м мгла ясно +42.1 +15.2 21 +43 +59 опасность
перегрева
1005.2 1002.8
12 20.09 С 2 6000 м мгла ясно +44.3 +13.8 17 +44 +51 опасность
перегрева
1003.2 1000.8
15 20.09 СЗ 2 6000 м мгла ясно +40.4 +15.3 23 +42 +42 опасность
перегрева
1003.1 1000.7 +44.6
18 20.09 СВ 2 3000 м пыль ясно +37.5 +7.4 16 +35 +35 очень
жарко
1005.0 1002.6
21 20.09 СЗ 2 6000 м мгла ясно +32.7 +9.5 24 +32 +32 жарко 1004.3 1001.8
00 21.09 С 2 8000 м мгла ясно +31.5 +11.3 29 +32 +32 жарко 1004.2 1001.7
03 21.09 ЮЗ 1 10 км ясно +28.8 +10.9 33 +29 +29 жарко 1005.2 1002.8 +28.8
06 21.09 З 1 10 км ясно +37.3 +12.7 23 +37 +48 очень
жарко
1006.5 1004.1
09 21.09 СЗ 3 10 км ясно +43.0 +4.9 10 +40 +53 опасность
солнечного
удара
1005.8 1003.4
12 21.09 С 3 10 км ясно +43.8 +4.0 9 +41 +46 опасность
перегрева
1004.8 1002.4
15 21.09 С 1 10 км ясно +41.7 +3.2 9 +40 +40 очень
жарко
1004.6 1002.2 +44.0
18 21.09 СЗ 3 10 км ясно +38.5 +2.8 11 +35 +35 очень
жарко
1005.5 1003.1
21 21.09 СЗ 3 10 км ясно +35.8 +3.1 13 +33 +33 жарко 1005.3 1002.9
00 22.09 СВ 1 10 км ясно +31.3 +4.9 19 +29 +29 жарко 1005.1 1002.7
03 22.09 С 1 10 км ясно +27.0 +8.4 31 +27 +27 жарко 1006.0 1003.5 +25.0
06 22.09 Ю 2 7000 м мгла ясно +34.7 +19.9 42 +41 +49 опасность
перегрева
1007.8 1005.4
09 22.09 З 2 6000 м мгла ясно +41.8 +14.2 20 +42 +58 опасность
перегрева
1007.3 1004.9
12 22.09 С 3 10 км ясно +44.4 +7.3 11 +42 +48 опасность
перегрева
1005.6 1003.2
15 22.09 СВ 1 8000 м мгла 1/0
[Ac trans]
+36.8 +13.6 25 +37 +37 очень
жарко
1006.1 1003.7 +45.1
18 22.09 ЮЗ 1 10 км 1/0
[Ci fib]
+33.3 +12.3 28 +34 +34 очень
жарко
1007.0 1004.6
21 22.09 ЮВ 1 10 км ясно +30.6 +11.1 30 +31 +31 жарко 1006.7 1004.0
00 23.09 ЮВ 1 10 км ясно +27.1 +8.5 31 +27 +27 жарко 1006.1 1003.7
03 23.09 З 1 10 км ясно +27.9 +11.0 35 +29 +29 жарко 1006.4 1003.9 +26.5
06 23.09 С 1 7000 м мгла ясно +38.7 +8.4 16 +37 +47 очень
жарко
1008.1 1005.7
09 23.09 З 4 7000 м мгла ясно +43.8 +6.9 11 +41 +52 опасность
перегрева
1007.4 1004.9
12 23.09 СЗ 3 10 км ясно +44.6 +7.5 11 +42 +48 опасность
перегрева
1005.6 1003.2
15 23.09 СЗ 2 10 км ясно +39.6 +8.2 15 +37 +37 очень
жарко
1005.9 1003.5 +45.8
18 23.09 СЗ 3 10 км ясно +36.8 +5.0 14 +34 +34 очень
жарко
1007.1 1004.7
21 23.09 СЗ 3 10 км 1/0
[Ac trans]
+34.2 +1.9 13 +31 +31 жарко 1007.0 1004.6
00 24.09 В 1 8000 м мгла ясно +26.4 +7.4 30 +26 +26 жарко 1006.9 1004.4
03 24.09 З 1 7000 м мгла ясно +23.1 +5.1 31 +23 +23 комфорт 1007.0 1004.6 +22.7
06 24.09 З 2 10 км ясно +34.4 +6.7 18 +32 +41 жарко 1008.2 1005.7
09 24.09 З 3 10 км ясно +39.9 +2.6 10 +36 +49 очень
жарко
1007.8 1005.3
12 24.09 З 5 7000 м мгла ясно +41.2 +3.5 10 +38 +41 очень
жарко
1006.3 1003.9
15 24.09 СЗ 4 10 км ясно +37.6 +3.4 12 +34 +34 очень
жарко
1006.2 1003.7 +41.5
18 24.09 З 1 10 км ясно +33.2 +4.9 17 +31 +31 жарко 1007.1 1004.7
21 24.09 З 2 10 км ясно +30.0 +4.6 20 +28 +28 жарко 1004.0
00 25.09 З 2 10 км ясно +26.4 +5.4 26 +26 +26 жарко 1005.3 1002.9
03 25.09 штиль 0 1600 м дым ясно +22.6 +7.6 38 +24 +24 комфорт 1006.2 1003.7 +22.6
06 25.09 С 1 1600 м дым ясно +33.5 +8.2 21 +32 +42 жарко 1007.1 1004.6

 

Местоположение метеостанции Ahwaz (Иран): широта 31.33 долгота 48.67 высота над уровнем моря 22 м.

В архиве по умолчанию представлена погода в Ahwaz за последнюю неделю. Архивные данные за месяц целиком и за предыдущие месяцы, начиная с января 2011 года, Вы можете получить, выбрав интересующий диапазон дат из раскрывающегося списка и нажав кнопку "Ввод!".


*Определитесь, кто Вы:
робот инопланетянин человек

Внимание! Время в таблицах - всемирное. Для получения местного времени необходимо прибавить поправку, которая в Ahwaz равна 3.5 ч.

Смотрите также архив погоды в соседних городах и на ближайших метеорологических станциях:

Погода в Masjed-Soleyman (Иран) (92 км)
Погода в Safi-Abad Dezful (Иран) (107 км)
Погода в Omidieh (Иран) (114 км)
Погода в Abadan (Иран) (114 км)
Погода в Basrah (Ирак) (120 км)
Погода в Basrah Airport (Ирак) (124 км)
Погода в Fao (Ирак) (151 км)
Погода в Amarah (Ирак) (153 км)
Погода в Abdaly (Кувейт) (167 км)
Погода в Bubiyan (Кувейт) (176 км)

Пояснения к столбцам:

Ветер - указаны скорость ветра в м/с - средняя за 10 мин, порывы в срок и между сроками (в фигурных скобках) и направление, откуда дует ветер: С - северный, СВ - северо-восточный, В - восточный, ЮВ - юго-восточный, Ю - южный, ЮЗ - юго-западный, З - западный, СЗ - северо-западный.
Видимость - горизонтальная дальность видимости в метрах или километрах. При видимости от 1 до 10 км при отсутствии осадков обычно наблюдается дымка, при ухудшении видимости до 1 км и менее - туман. В сухую погоду видимость может ухудшаться дымом, пылью или мглою.
Явления - указаны атмосферные явления, наблюдавшиеся в срок или в последний час перед сроком; фигурными скобками обозначены явления, наблюдавшиеся между сроками (за 1-3 часа до срока); квадратными скобками обозначены град или гололедные отложения с указанием их диаметра в мм.
Облачность - указаны через наклонную черту общая и нижняя облачность в баллах и высота нижней границы облаков в метрах; квадратными скобками обозначены формы облаков: Ci - перистые, Cs - перисто-слоистые, Cc - перисто-кучевые, Ac - высококучевые, As - высокослоистые, Sc - слоисто-кучевые, Ns - слоисто-дождевые, Cu - кучевые, Cb - кучево-дождевые. Подробнее классификацию облаков см. в Атласе облаков (PDF).
T - Температура воздуха - температура, измеренная на высоте 2 м над землей.
Td - Температура точки росы - температура, при понижении до которой содержащийся в воздухе водяной пар достигнет насыщения.
f - Относительная влажность воздуха - влажноcть воздуха, измеренная на высоте 2 м над землей.
Te - Эффективная температура - температура, которую ощущает одетый по сезону человек в тени. Характеристика душности погоды. При расчете учитывается влияние влажности воздуха и скорости ветра на теплоощущения человека.
Tes - Эффективная температура на солнце - температура, которую ощущает человек, с поправкой на солнечный нагрев. Характеристика знойности погоды. Зависит от высоты солнца над горизонтом, облачности и скорости ветра. Ночью, в пасмурную погоду, а также при ветре 12 м/с и более поправка равна нулю.
P - Атмосферное давление - приведенное к уровню моря атмосферное давление.
Po - Атмосферное давление - измеренное на уровне метеостанции атмосферное давление.
Tmin - Минимальная температура - минимум температуры воздуха на высоте 2 м над землей.
Tmax - Максимальная температура - максимум температуры воздуха на высоте 2 м над землей.
R - Количество осадков - Количество выпавших осадков за период времени, мм. При наведении курсора мыши на число - период времени, за который выпало указанное количество осадков.
R24 - Количество осадков - Количество выпавших осадков за 24 часа, мм.
S - Снежный покров - Высота снежного покрова, см. При наведении курсора мыши на число - состояние снежного покрова и степень покрытия местности в баллах.